Find Lemur-2-Celijo-SB-PK

NORAD ID: 66781 Int'l Des: 2025-276 Owner: SPIRE/LACU Country: US Constellation: spire operational
LEOCIRCULARRETROGRADESSO

現在のビュー

3D地球を読み込み中...

Lemur-2-Celijo-SB-PKについて

説明を読み込み中...

次回通過

Passes for default location (London). Set your location on the main map for personalized predictions.

高度履歴

Loading altitude history...

軌道要素

1 66781U 25276DW 26146.15367349 .00008402 00000-0 68571-3 0 9991
2 66781 97.5281 217.6516 0008156 190.6749 169.4303 14.99642498 19323
Epoch: May 26, 2026 • Age: 12 hours

現在のステータス

高度 572.9 km
速度 7.58 km/s
衛星直下点 49.37°N, 69.43°W
打ち上げ日 Nov 28, 2025
運用期間 0.4 years
タイプ other

技術仕様

分類 Payload
質量 5.00 kg
乾燥質量 5.00 kg
総質量 5.00 kg
長さ 0.40 m
直径 0.10 m
スパン 0.40 m
形状 Box
製造者 SPIREG
バスタイプ Cubesat 4U
フェーズステータス In Orbit
所有者/国 SPIRE/LACU/US

Most Searched